Regional Weather Roundup
Issued by NWS

Home | Current Version | Previous Version | Text Only | Print | Product List | Glossary Off
Versions: 1 2 3 4 5 6 7 8 9 10 11 12 13 14 15 16 17 18 19 20 21 22 23 24 25 26 27 28 29 30 31 32 33 34 35 36 37 38 39 40 41 42 43 44 45 46 47 48 49 50

000
ASUS45 KBOU 290510
RWRCO

WEATHER ROUNDUP FOR COLORADO
NATIONAL WEATHER SERVICE DENVER/BOULDER CO
1100 PM MDT TUE JUL 28 2015

NOTE: "FAIR" INDICATES FEW OR NO CLOUDS BELOW 12000 FEET WITH NO
SIGNIFICANT WEATHER AND/OR OBSTRUCTIONS TO VISIBILITY.

COZ001>005-013-030-031-290600-
...NORTHWEST COLORADO...

CITY           SKY/WX    TMP DP  RH WIND       PRES   REMARKS
CRAIG          CLEAR     56  33  42 CALM      30.30R
HAYDEN         CLEAR     55  28  35 SW7       30.31R
MEEKER         CLEAR     56  36  47 S3        30.30R
MOUNT WERNER   NOT AVBL
STEAMBOAT SPGS CLEAR     55  34  46 CALM      30.34R
WALDEN         PTCLDY    50  21  32 CALM      30.43R
$$

COZ006>008-011-290600-
...WEST CENTRAL VALLEYS...

CITY           SKY/WX    TMP DP  RH WIND       PRES   REMARKS
GRAND JUNCTION CLEAR     72  34  24 CALM      30.14R
MONTROSE       CLEAR     66  40  38 SE8       30.23R
EAGLE          CLEAR     64  34  32 CALM      30.32R
RIFLE          CLEAR     65  29  25 SE5       30.22R
DELTA          CLEAR     69  32  25 E8        30.17R
NUCLA          CLEAR     68  32  26 E8        30.26R
$$

COZ017>023-064>068-290600-
...SOUTHWEST COLORADO...

CITY           SKY/WX    TMP DP  RH WIND       PRES   REMARKS
DURANGO        PTCLDY    70  29  21 W7        30.25R
CORTEZ         CLEAR     62  38  40 VRB5      30.21R
PAGOSA SPRINGS PTCLDY    67  34  29 NE6       30.34R
TELLURIDE      PTCLDY    57  34  40 E3        30.49R
WOLF CREEK PAS NOT AVBL
$$

COZ009-010-012-014-032>034-037-058>063-290600-
...CENTRAL COLORADO...

CITY           SKY/WX    TMP DP  RH WIND       PRES   REMARKS
ASPEN          PTCLDY    55  38  52 SW8       30.38R
BUENA VISTA    PTCLDY    63  35  35 CALM      30.42R
COPPER MTN     PTCLDY    52  32  46 NW6       30.69F
BERTHOUD PASS  FAIR      39  30  70 E23G35    30.74S
COTTONWOOD PAS PTCLDY    61  32  33 NE6       30.55R
GUNNISON       PTCLDY    57  34  41 N5        30.39R
KREMMLING      CLEAR     54  32  43 CALM      30.39R
LEADVILLE      PTCLDY    52  33  48 S3        30.53R
MONARCH PASS   MOCLDY    48  34  57 NE22      30.77S
SALIDA         PTCLDY    68  37  31 E8        30.45R
SUNLIGHT       CLEAR     55  28  35 N3        30.62S
WILKERSON PASS PTCLDY    48  34  57 E8        30.68S
$$

COZ069>075-290600-
...SAN LUIS VALLEY/SANGRE DE CRISTO MOUNTAINS...

CITY           SKY/WX    TMP DP  RH WIND       PRES   REMARKS
ALAMOSA        MOCLDY    65  47  52 SE10      30.33R
LA VETA PASS   RAIN      54  46  76 MISG      30.57R
SAGUACHE       MOCLDY    66  34  30 N7        30.36R
$$

COZ035-036-038>040-290600-
...NORTHERN COLORADO FRONT RANGE...

CITY           SKY/WX    TMP DP  RH WIND       PRES   REMARKS
DENVER INTL AP PTCLDY    63  40  42 SE9       30.28R
DMNS CITY PARK   N/A     67  46  46 E13       30.27S
AURORA         PTCLDY    61  45  55 S5        30.31R
FRONT RANGE AP NOT AVBL
ERIE MUNI ARPT PTCLDY    71  37  29 E10G16    30.27S
BOULDER MUN AP MOCLDY    70  39  32 NW6       30.29R
CENTENNIAL     MOCLDY    65  46  50 S6        30.31R
BROOMFIELD     NOT AVBL
FORT COLLINS   MOCLDY    72  37  28 E5        30.29R
LONGMONT       CLOUDY    72  40  31 N3        30.29S
$$

COZ041-046-047-076>085-087-088-290600-
...PIKES PEAK/PALMER DIVIDE AND SOUTHERN FOOTHILLS...

CITY           SKY/WX    TMP DP  RH WIND       PRES   REMARKS
COLO. SPRINGS  PTCLDY    64  43  46 N6        30.35R
A. F. ACADEMY  PTCLDY    62  41  45 S9        30.36R
ELLICOTT       PTCLDY   N/A N/A N/A E10       30.31R
FALCON         PTCLDY    57  42  56 NE6       30.39R
FORT CARSON    CLEAR     65  43  44 N5        30.32R
LIMON          PTCLDY    59  46  62 S5        30.28R
MONUMENT HILL  PTCLDY    55  41  58 S9        30.38R
TRINIDAD       CLOUDY    71  49  45 SW15G22   30.24R
$$

COZ042>045-048>051-090-091-290600-
...NORTHEAST COLORADO...

CITY           SKY/WX    TMP DP  RH WIND       PRES   REMARKS
GREELEY ARPT   CLOUDY    68  41  37 E3        30.27R
AKRON          PTCLDY    63  46  54 S7        30.25R
BURLINGTON     MOCLDY    65  49  56 NE7       30.22R
WRAY           CLEAR     61  49  63 CALM      30.19R
STERLING       NOT AVBL
HOLYOKE        CLEAR     61  52  72 CALM      30.20R
FORT MORGAN    PTCLDY    64  38  37 E8        30.24S
$$

COZ086-089-092>099-290600-
...SOUTHEAST COLORADO...

CITY           SKY/WX    TMP DP  RH WIND       PRES   REMARKS
PUEBLO         PTCLDY    77  43  29 E13       30.21R
LA JUNTA       MOCLDY    71  49  45 E8        30.18R
LAMAR          CLOUDY    68  54  60 E3        30.14S
SPRINGFIELD      N/A     68  56  65 CALM      30.20R
$$



USA.gov is the U.S. government's official web portal to all federal, state and local government web resources and services.